Weather History for Durango, CO

Change the Weather History Date:

Friday, March 15, 2013

  Actual Average Record
Temperature  
Mean Temperature 50 °F 37 °F  
Max Temperature 71 °F 52 °F 71 °F (1974)
Min Temperature 28 °F 23 °F 8 °F (2002)
Degree Days  
Heating Degree Days 15 28  
Month to date heating degree days 393 447  
Since 1 July heating degree days 5739 5622  
Cooling Degree Days 0 0  
Month to date cooling degree days 0 0  
Year to date cooling degree days 0 0  
Moisture  
Dew Point 22 °F    
Average Humidity 50    
Maximum Humidity 85    
Minimum Humidity 14    
Precipitation  
Precipitation 0.00 in 0.03 in 0.57 in (1987)
Month to date precipitation 0.40 0.66  
Year to date precipitation 2.61 2.94  
Snow  
Snow 0.00 in - - ()
Month to date snowfall 0.0  
Snow Depth 0.00 in    
Sea Level Pressure  
Sea Level Pressure 30.10 in    
Wind  
Wind Speed 6 mph (NW)    
Max Wind Speed 23 mph    
Max Gust Speed 28 mph    
Visibility 10 miles    
Events      
T = Trace of Precipitation, MM = Missing Value Source: NWS Daily Summary

Daily Weather History Graph

Daily Weather History Graph

Search for Another Location

Airport:

Trip Planner

Search our weather history database for the weather conditions in past years. The results will help you decide how hot, cold, wet, or windy it might be!

Date:

Astronomy

Mar. 15, 2013 Rise Set
Actual Time 7:21 AM MDT 7:18 PM MDT
Civil Twilight 6:55 AM MDT 7:44 PM MDT
Nautical Twilight 6:25 AM MDT 8:14 PM MDT
Astronomical Twilight 5:55 AM MDT 8:45 PM MDT
Moon 9:19 AM MDT (3/15) 11:28 PM MDT (3/15)
Length of Visible Light 12h 48m
Length of Day
11h 57m
Waxing Crescent, 16% of the Moon is Illuminated
Mar 15
Waxing Crescent
Mar 19
First Quarter
Mar 27
Full
Apr 2
Last Quarter
Apr 10
New

Hourly Weather History & Observations

Time (MDT) Temp. Windchill Dew Point Humidity Pressure Visibility Wind Dir Wind Speed Gust Speed Precip Events Conditions
12:53 AM 35.1 °F 30.1 °F 26.1 °F 70% 30.23 in 10.0 mi NE 5.8 mph - N/A   Clear
1:53 AM 34.0 °F - 25.0 °F 70% 30.22 in 10.0 mi Calm Calm - N/A   Clear
2:53 AM 32.0 °F 28.7 °F 24.1 °F 73% 30.20 in 10.0 mi NNE 3.5 mph - N/A   Clear
3:53 AM 32.0 °F 27.5 °F 23.0 °F 69% 30.17 in 10.0 mi ESE 4.6 mph - N/A   Clear
4:53 AM 34.0 °F 31.0 °F 23.0 °F 64% 30.17 in 10.0 mi SE 3.5 mph - N/A   Clear
5:53 AM 30.0 °F - 24.1 °F 79% 30.19 in 10.0 mi Calm Calm - N/A   Clear
6:53 AM 28.9 °F 25.2 °F 24.1 °F 82% 30.20 in 10.0 mi East 3.5 mph - N/A   Clear
7:53 AM 30.0 °F - 23.0 °F 75% 30.22 in 10.0 mi Calm Calm - N/A   Clear
8:53 AM 39.0 °F 36.8 °F 25.0 °F 57% 30.22 in 10.0 mi NE 3.5 mph - N/A   Clear
9:53 AM 45.0 °F 43.5 °F 25.0 °F 46% 30.20 in 10.0 mi Variable 3.5 mph - N/A   Clear
10:53 AM 53.1 °F - 23.0 °F 31% 30.16 in 10.0 mi Calm Calm - N/A   Clear
11:53 AM 59.0 °F - 26.1 °F 28% 30.14 in 10.0 mi Variable 3.5 mph - N/A   Clear
12:53 PM 64.9 °F - 19.9 °F 18% 30.09 in 10.0 mi WSW 10.4 mph 21.9 mph N/A   Clear
1:53 PM 68.0 °F - 19.9 °F 16% 30.05 in 10.0 mi WSW 15.0 mph 25.3 mph N/A   Clear
2:53 PM 70.0 °F - 18.0 °F 14% 30.01 in 10.0 mi West 18.4 mph 25.3 mph N/A   Clear
3:53 PM 66.9 °F - 17.1 °F 15% 30.00 in 10.0 mi WNW 13.8 mph 23.0 mph N/A   Clear
4:53 PM 64.9 °F - 19.9 °F 18% 29.99 in 10.0 mi WNW 11.5 mph - N/A   Clear
5:53 PM 64.9 °F - 18.0 °F 16% 29.99 in 10.0 mi WSW 11.5 mph - N/A   Clear
6:53 PM 61.0 °F - 18.0 °F 19% 30.00 in 10.0 mi WNW 12.7 mph - N/A   Clear
7:53 PM 55.9 °F - 18.0 °F 23% 30.02 in 10.0 mi WNW 8.1 mph - N/A   Clear
8:53 PM 53.1 °F - 19.0 °F 26% 30.00 in 10.0 mi West 3.5 mph - N/A   Clear
9:53 PM 45.0 °F 42.6 °F 24.1 °F 44% 30.00 in 10.0 mi ENE 4.6 mph - N/A   Clear
10:53 PM 44.1 °F - 21.9 °F 42% 29.96 in 10.0 mi Calm Calm - N/A   Clear
11:53 PM 43.0 °F - 21.9 °F 43% 29.93 in 10.0 mi Calm Calm - N/A   Clear